Location: Solon
(41.3849°N, 81.4081°W)
Time: 16:52:33
(UTC-04:00)

Daily predictions for brighter satellites

Satellite Brightness Start Highest point End
(mag) Time Altitude Azimuth Time Altitude Azimuth Time Altitude Azimuth
Milstar 3 Cent rocket 4.1 21:19:24 10° WSW 21:25:07 31° S 21:35:04 10° ESE
H-2A R/B 3.9 21:31:09 10° ESE 21:34:40 18° ENE 21:38:14 10° NNE
Cosmos 1726 4.4 21:34:24 10° NE 21:35:28 11° ENE 21:36:32 10° E
Cosmos 1340 Rocket 2.8 21:34:32 10° S 21:38:30 68° E 21:42:34 10° NNE
Cosmos 1184 Rocket 2.8 21:35:28 10° S 21:38:48 80° E 21:42:11 10° NNE
Cosmos 1818 3.9 21:34:20 10° NNW 21:39:44 59° NE 21:45:04 10° SE
Cosmos 1741 Rocket 4.2 21:36:19 10° S 21:41:29 55° ESE 21:46:40 10° NNE
Cosmos 2237 Rocket 3.0 21:36:19 10° NW 21:41:45 50° WSW 21:47:08 10° S
NOSS 3-4 (A) 4.1 21:35:08 10° NW 21:42:12 75° WSW 21:49:43 10° SSE
NOSS 3-4 (C) 4.1 21:35:14 10° NW 21:42:18 76° WSW 21:49:49 10° SSE
USA 186 4.0 21:46:36 10° SW 21:48:03 15° W 21:49:27 10° WNW
Resurs 01 Rocket 4.0 21:49:35 10° SW 21:53:00 22° W 21:56:26 10° NW
Cosmos 2227 Rocket 3.7 21:51:14 10° SW 21:56:33 41° WNW 22:01:54 10° N
Cosmos 1674 2.8 21:56:40 10° S 22:00:21 55° E 22:04:02 10° NNE
Atlas Centaur 2 3.1 22:00:26 10° SW 22:02:03 13° S 22:03:34 10° SSE
Cosmos 1459 Rocket 4.1 21:56:11 10° N 22:02:26 61° E 22:08:32 10° SSE
Helios 1B rocket 3.2 21:58:35 10° N 22:02:40 56° WNW 22:06:43 10° SSW
H-2A ROCKET BODY 3.8 22:00:50 10° SSE 22:02:56 12° SE 22:06:04 10° ESE
Cosmos 2084 3.1 21:59:28 10° SSW 22:03:29 79° SE 22:07:21 10° NE
Cosmos 1908 3.3 22:00:43 10° N 22:04:35 64° E 22:08:10 11° SSE
Cosmos 2100 Rocket 4.1 21:59:02 10° N 22:05:21 70° E 22:11:40 10° SSE
SL-16 R/B 2.3 22:00:24 10° NNW 22:06:04 77° WSW 22:11:42 10° SSE
ARGOS 3.6 22:01:30 11° SE 22:06:27 50° ENE 22:11:40 10° N
MetOp-A 4.3 22:01:22 10° SSE 22:06:39 65° ENE 22:11:57 10° N
Helios 1A 4.2 22:03:58 10° S 22:07:52 40° W 22:11:47 10° NNW
Cosmos 2061 Rocket 4.2 22:02:58 10° N 22:09:18 63° E 22:15:28 11° SSE
Meteor 1-29 4.1 22:08:15 10° N 22:11:34 46° WNW 22:14:52 10° SSW
KORONAS-FOTON 3.9 22:10:30 10° S 22:14:12 53° E 22:17:54 10° NNE
Cosmos 2173 Rocket 4.0 22:10:42 10° N 22:16:52 78° E 22:23:00 11° S
Cosmos 2208 Rocket 4.1 22:11:47 10° NNW 22:17:08 86° WSW 22:21:57 13° SSE
SPOT 1/Viking Rocket 3.8 22:25:32 18° SE 22:29:14 53° ENE 22:34:15 10° N
Cosmos 1570 Rocket 4.5 22:25:06 10° NNW 22:30:19 59° WSW 22:34:58 13° S
Cosmos 1242 Rocket 3.0 22:28:11 10° NNW 22:31:52 60° W 22:34:53 14° S
Cosmos 1763 Rocket 4.4 22:27:17 10° N 22:31:57 34° ENE 22:35:00 18° ESE
Cosmos 1356 Rocket 3.9 22:30:48 10° SSW 22:34:59 62° W 22:39:16 10° N
Cosmos 1802 Rocket 4.0 22:32:22 10° N 22:38:32 83° W 22:43:58 14° S
Cosmos 1725 Rocket 4.2 22:33:09 10° N 22:39:20 59° E 22:43:35 21° SSE
Cosmos 2227 4.2 22:35:23 10° SSW 22:41:07 84° ESE 22:46:51 10° NNE
SPOT 5 2.9 22:37:41 18° SSE 22:41:16 87° WSW 22:46:23 10° NNW
Cosmos 2058 4.2 22:41:53 22° ESE 22:43:00 24° E 22:46:25 10° NE
Cosmos 371 Rocket 3.7 22:38:24 10° N 22:43:07 51° ENE 22:45:45 24° SE
Lacrosse 5 2.0 22:38:28 10° NW 22:43:32 69° NE 22:46:42 23° ESE
Cosmos 1408 Rocket 3.6 22:39:20 10° SSW 22:43:37 77° W 22:47:57 10° N
Cosmos 1867 4.3 22:42:00 10° SW 22:47:20 56° NW 22:52:44 10° NNE
Tiangong 1 1.1 22:51:12 10° W 22:53:59 61° N 22:55:09 29° ENE
Abrixas rocket 3.2 22:52:01 10° NW 22:55:08 42° NNE 22:56:48 22° E
RESURS DK-1 2.3 22:52:03 10° NNW 22:56:15 87° WSW 22:58:06 32° SSE
USA 234 3.2 22:53:25 10° NE 23:00:00 89° NW 23:06:33 10° SW
Cosmos 468 Rocket 4.1 22:55:50 10° NNW 23:00:57 71° WSW 23:03:53 26° S
EO 1 Delta rocket 3.9 22:59:49 24° S 23:02:43 78° W 23:07:21 10° NNW
Meteor 2-2 Rocket 4.3 22:57:45 10° NNW 23:03:34 81° W 23:07:23 23° S
Cosmos 1500 Rocket 3.6 23:01:39 31° SSE 23:03:38 61° E 23:08:03 10° NNE
Cosmos 2151 3.3 23:02:31 34° SE 23:03:58 49° E 23:08:08 10° NNE
SL-14 R/B 3.3 23:02:08 25° SSW 23:04:25 82° W 23:08:23 10° N
Cosmos 1626 2.9 23:05:11 33° ESE 23:05:31 33° E 23:08:54 10° NNE
Landsat 7 3.8 23:04:12 30° SSE 23:06:33 81° ENE 23:11:19 10° N
Cosmos 2263 Rocket 2.4 23:04:26 27° SSE 23:07:09 48° ESE 23:12:30 10° NE
Cosmos 2016 Rocket 4.4 23:01:32 10° NNW 23:07:41 59° W 23:12:33 16° SSW
Cosmos 1300 2.9 23:04:56 10° NNW 23:08:45 68° W 23:10:18 33° SSW
Meteor 2-10 4.2 23:03:07 10° N 23:08:45 85° W 23:12:05 26° S
Cosmos 1726 3.0 23:07:31 10° NNW 23:11:03 44° W 23:12:45 25° SSW
Cosmos 1328 4.0 23:09:20 24° SSW 23:11:41 68° W 23:15:43 10° N
H-2A R/B 2.4 23:10:15 24° S 23:13:30 64° W 23:18:54 10° NNW
CARTOSAT-1 3.6 23:12:29 38° SE 23:14:00 67° ENE 23:18:18 10° N
ATLAS 5 CENTAUR R/B 4.2 23:10:24 10° W 23:14:22 25° NW 23:18:38 10° NNE
Terra 1.7 23:19:38 38° SSE 23:21:29 80° ENE 23:26:15 10° N
CZ-4 R/B 4.2 23:17:20 10° NNE 23:22:00 46° E 23:23:08 38° SE
Cosmos 1328 Rocket 4.3 23:22:45 10° NNW 23:26:54 45° W 23:28:53 26° SSW
CZ-4B R/B 3.9 23:25:57 10° NNE 23:31:03 47° E 23:32:19 39° SE
Cosmos 1515 Rocket 3.9 23:27:27 10° NNW 23:31:43 57° W 23:33:17 35° SSW
SL-19 R/B 4.1 23:26:25 10° NNE 23:31:46 74° ESE 23:34:17 33° S
Cosmos 2233 Rocket 3.9 23:26:25 10° N 23:32:39 86° W 23:35:40 33° S
Cosmos 540 Rocket 4.0 23:29:28 10° N 23:34:26 46° ENE 23:36:05 34° ESE
Cosmos 2228 Rocket 4.1 23:30:34 10° NNW 23:34:54 42° W 23:37:00 26° SW
H-2A R/B 1.9 23:34:10 51° SSE 23:35:16 87° ENE 23:39:32 10° NNW
Cosmos 1151 Rocket 3.2 23:32:02 10° NNW 23:36:24 67° W 23:37:42 43° SSW
Cosmos 1844 Rocket 4.2 23:41:56 19° E 23:41:56 19° E 23:45:25 10° ENE
Delta 2 Rocket 4.4 23:36:42 10° WSW 23:41:59 41° S 23:41:59 41° S
IGS 5A 3.7 23:41:12 46° SSW 23:42:11 61° W 23:46:19 10° NNW
Cosmos 1455 2.2 23:38:38 10° N 23:42:28 62° E 23:42:40 60° E
Cosmos 1869 4.4 23:40:29 10° NNE 23:44:02 31° ENE 23:44:06 31° E
Cosmos 1356 4.3 23:44:50 40° WSW 23:45:32 46° WNW 23:48:56 10° N
Cosmos 304 Rocket 3.8 23:42:02 10° NNW 23:46:50 68° ENE 23:47:54 51° SE
ERBS 2.9 23:44:21 10° NW 23:47:11 48° W 23:47:11 48° W
Spot 4 3.8 23:47:15 50° SSE 23:48:29 76° ENE 23:53:22 10° N
Cosmos 1943 3.4 23:43:51 10° NNW 23:49:25 62° WSW 23:51:21 40° S
CZ-4C R/B 3.7 23:49:57 52° ESE 23:50:31 57° ENE 23:54:49 10° N
Cosmos 1354 Rocket 3.9 23:51:23 39° SSW 23:53:23 90° NNW 23:58:39 10° NNE
